NKS877 KATL-KFLL

Flight info

Callsign NKS877
Flight time 2h 7m
Altitude 37000
Route SMLTZ3 WALET ZPLEN TEEKY4
Aircraft A319/M-SDE3FGHIRWY/LB1

Departure

Time 2026-05-03 21:27
Airport Hartsfield Jackson Atlanta International Airport (KATL)

Arrival

Time 2026-05-03 23:34
Airport Fort Lauderdale Hollywood International Airport (KFLL)
Time Latitude Longitude Altitude Speed Heading
2026-05-03 20:37 33.64155 -84.42886 1036 ft 0 kts 284°
2026-05-03 21:14 33.64151 -84.42869 1035 ft 4 kts 285°
2026-05-03 21:14 33.64146 -84.42838 1035 ft 4 kts 266°
2026-05-03 21:15 33.64154 -84.42811 1035 ft 4 kts 197°
2026-05-03 21:15 33.64164 -84.42809 1035 ft 1 kts 180°
2026-05-03 21:15 33.64165 -84.42809 1035 ft 0 kts 180°
2026-05-03 21:18 33.64157 -84.42809 1035 ft 3 kts 180°
2026-05-03 21:18 33.64105 -84.42809 1035 ft 12 kts 180°
2026-05-03 21:18 33.63998 -84.42808 1035 ft 17 kts 180°
2026-05-03 21:18 33.63883 -84.42809 1035 ft 11 kts 180°
2026-05-03 21:19 33.63805 -84.42809 1035 ft 11 kts 180°
2026-05-03 21:19 33.63721 -84.42809 1035 ft 13 kts 179°
2026-05-03 21:19 33.63661 -84.42744 1036 ft 14 kts 98°
2026-05-03 21:19 33.63656 -84.42626 1036 ft 15 kts 90°
2026-05-03 21:20 33.63656 -84.42499 1036 ft 16 kts 90°
2026-05-03 21:20 33.63657 -84.42372 1036 ft 15 kts 90°
2026-05-03 21:20 33.63656 -84.42242 1036 ft 16 kts 91°
2026-05-03 21:20 33.63616 -84.42121 1036 ft 16 kts 121°
2026-05-03 21:21 33.63582 -84.41989 1036 ft 18 kts 89°
2026-05-03 21:21 33.63582 -84.41838 1035 ft 19 kts 90°
2026-05-03 21:21 33.63582 -84.41685 1035 ft 18 kts 90°
2026-05-03 21:21 33.63583 -84.41526 1035 ft 20 kts 90°
2026-05-03 21:22 33.63582 -84.41367 1034 ft 18 kts 90°
2026-05-03 21:22 33.63581 -84.41238 1035 ft 11 kts 90°
2026-05-03 21:22 33.63582 -84.41141 1035 ft 12 kts 89°
2026-05-03 21:22 33.63582 -84.41052 1035 ft 6 kts 89°
2026-05-03 21:23 33.63583 -84.41039 1035 ft 0 kts 90°
2026-05-03 21:23 33.63582 -84.41015 1035 ft 5 kts 90°
2026-05-03 21:23 33.63573 -84.40943 1035 ft 10 kts 119°
2026-05-03 21:24 33.63564 -84.40930 1035 ft 0 kts 134°
2026-05-03 21:24 33.63560 -84.40926 1035 ft 3 kts 137°
2026-05-03 21:24 33.63524 -84.40913 1036 ft 8 kts 178°
2026-05-03 21:25 33.63473 -84.40944 1036 ft 10 kts 249°
2026-05-03 21:25 33.63472 -84.40972 1036 ft 0 kts 270°
2026-05-03 21:25 33.63472 -84.40985 1036 ft 6 kts 270°
2026-05-03 21:26 33.63471 -84.41237 1035 ft 58 kts 270°
2026-05-03 21:26 33.63471 -84.41942 1036 ft 111 kts 270°
2026-05-03 21:26 33.63470 -84.43074 1037 ft 159 kts 270°
2026-05-03 21:26 33.63470 -84.44425 1625 ft 159 kts 269°
2026-05-03 21:27 33.63460 -84.45746 2406 ft 158 kts 271°
2026-05-03 21:27 33.63458 -84.47086 2964 ft 169 kts 271°
2026-05-03 21:27 33.63459 -84.48586 3313 ft 191 kts 271°
2026-05-03 21:27 33.63456 -84.50147 3678 ft 216 kts 271°
2026-05-03 21:28 33.63451 -84.52054 4194 ft 241 kts 271°
2026-05-03 21:28 33.63450 -84.54144 4879 ft 256 kts 271°
2026-05-03 21:28 33.63451 -84.56307 5818 ft 261 kts 271°
2026-05-03 21:28 33.63454 -84.58507 6791 ft 266 kts 271°
2026-05-03 21:29 33.63456 -84.60739 7714 ft 270 kts 271°
2026-05-03 21:29 33.63355 -84.63005 8641 ft 275 kts 261°
2026-05-03 21:29 33.62693 -84.65177 9524 ft 283 kts 242°
2026-05-03 21:29 33.61453 -84.67028 9876 ft 289 kts 223°
2026-05-03 21:30 33.60351 -84.67945 9952 ft 291 kts 212°
2026-05-03 21:30 33.57837 -84.69090 9986 ft 295 kts 194°
2026-05-03 21:30 33.55785 -84.69299 10012 ft 299 kts 179°
2026-05-03 21:30 33.53693 -84.68951 10655 ft 304 kts 172°
2026-05-03 21:31 33.51601 -84.68551 11500 ft 306 kts 173°
2026-05-03 21:31 33.49490 -84.68165 12324 ft 309 kts 174°
2026-05-03 21:31 33.47354 -84.67781 13146 ft 312 kts 174°
2026-05-03 21:31 33.45900 -84.67518 13698 ft 314 kts 174°
2026-05-03 21:32 33.43746 -84.67015 14431 ft 319 kts 166°
2026-05-03 21:32 33.41690 -84.65951 15118 ft 327 kts 152°
2026-05-03 21:32 33.39803 -84.64268 15307 ft 352 kts 138°
2026-05-03 21:32 33.38018 -84.62139 15646 ft 367 kts 136°
2026-05-03 21:33 33.36200 -84.59960 16224 ft 373 kts 137°
2026-05-03 21:33 33.34361 -84.57764 16866 ft 377 kts 137°
2026-05-03 21:33 33.32512 -84.55572 17507 ft 380 kts 137°
2026-05-03 21:33 33.30595 -84.53315 18168 ft 384 kts 138°
2026-05-03 21:34 33.28678 -84.51063 18756 ft 387 kts 138°
2026-05-03 21:34 33.26751 -84.48796 19327 ft 391 kts 138°
2026-05-03 21:34 33.24805 -84.46505 19904 ft 394 kts 138°
2026-05-03 21:34 33.22850 -84.44206 20478 ft 397 kts 138°
2026-05-03 21:35 33.20872 -84.41878 21072 ft 401 kts 138°
2026-05-03 21:35 33.18873 -84.39527 21631 ft 404 kts 138°
2026-05-03 21:35 33.16864 -84.37165 22189 ft 407 kts 138°
2026-05-03 21:35 33.14843 -84.34792 22746 ft 410 kts 139°
2026-05-03 21:36 33.12799 -84.32394 23289 ft 414 kts 139°
2026-05-03 21:36 33.10768 -84.30011 23807 ft 417 kts 139°
2026-05-03 21:36 33.08662 -84.27544 24240 ft 420 kts 139°
2026-05-03 21:36 33.06561 -84.25088 24667 ft 423 kts 139°
2026-05-03 21:37 33.04479 -84.22659 25075 ft 426 kts 140°
2026-05-03 21:37 33.02343 -84.20188 25492 ft 428 kts 142°
2026-05-03 21:37 33.00005 -84.18020 25902 ft 426 kts 152°
2026-05-03 21:37 32.97423 -84.16333 26313 ft 422 kts 162°
2026-05-03 21:38 32.94684 -84.15116 26740 ft 420 kts 167°
2026-05-03 21:38 32.91909 -84.13983 27163 ft 423 kts 167°
2026-05-03 21:38 32.89118 -84.12841 27574 ft 425 kts 167°
2026-05-03 21:38 32.86313 -84.11691 27992 ft 428 kts 167°
2026-05-03 21:39 32.83497 -84.10533 28408 ft 430 kts 168°
2026-05-03 21:39 32.80657 -84.09363 28822 ft 432 kts 168°
2026-05-03 21:39 32.77810 -84.08193 29231 ft 435 kts 168°
2026-05-03 21:39 32.74944 -84.07015 29625 ft 437 kts 168°
2026-05-03 21:40 32.72060 -84.05827 30029 ft 439 kts 168°
2026-05-03 21:40 32.69170 -84.04638 30370 ft 441 kts 169°
2026-05-03 21:40 32.66255 -84.03443 30699 ft 443 kts 169°
2026-05-03 21:40 32.63341 -84.02250 31044 ft 444 kts 169°
2026-05-03 21:41 32.60418 -84.01055 31376 ft 446 kts 169°
2026-05-03 21:41 32.57478 -83.99853 31709 ft 447 kts 169°
2026-05-03 21:41 32.54537 -83.98647 32034 ft 448 kts 169°
2026-05-03 21:41 32.51585 -83.97437 32366 ft 449 kts 170°
2026-05-03 21:42 32.48633 -83.96227 32816 ft 447 kts 170°
2026-05-03 21:42 32.45706 -83.95029 33300 ft 444 kts 171°
2026-05-03 21:42 32.42826 -83.93853 33766 ft 442 kts 171°
2026-05-03 21:42 32.39930 -83.92673 34222 ft 440 kts 171°
2026-05-03 21:43 32.37004 -83.91482 34621 ft 438 kts 171°
2026-05-03 21:43 32.34168 -83.90361 34981 ft 435 kts 172°
2026-05-03 21:43 32.31240 -83.89280 35334 ft 433 kts 173°
2026-05-03 21:43 32.28401 -83.88280 35649 ft 432 kts 174°
2026-05-03 21:44 32.25517 -83.87287 35968 ft 431 kts 174°
2026-05-03 21:44 32.22630 -83.86294 36290 ft 431 kts 174°
2026-05-03 21:44 32.19761 -83.85296 36596 ft 431 kts 174°
2026-05-03 21:44 32.16888 -83.84279 36903 ft 431 kts 174°
2026-05-03 21:45 32.14016 -83.83249 37096 ft 431 kts 174°
2026-05-03 21:45 32.11158 -83.82219 37136 ft 428 kts 174°
2026-05-03 21:45 32.05475 -83.80173 37136 ft 427 kts 174°
2026-05-03 21:46 31.99800 -83.78142 37135 ft 426 kts 175°
2026-05-03 21:46 31.94131 -83.76131 37134 ft 425 kts 175°
2026-05-03 21:47 31.88465 -83.74113 37131 ft 425 kts 175°
2026-05-03 21:47 31.82799 -83.72098 37128 ft 425 kts 175°
2026-05-03 21:48 31.77141 -83.70094 37132 ft 425 kts 175°
2026-05-03 21:48 31.71471 -83.68081 37132 ft 425 kts 175°
2026-05-03 21:49 31.65828 -83.66042 37128 ft 426 kts 174°
2026-05-03 21:49 31.60224 -83.63881 37127 ft 427 kts 174°
2026-05-03 21:50 31.54591 -83.61680 37122 ft 426 kts 174°
2026-05-03 21:50 31.48964 -83.59507 37118 ft 426 kts 174°
2026-05-03 21:51 31.43342 -83.57362 37113 ft 425 kts 174°
2026-05-03 21:51 31.37718 -83.55212 37111 ft 425 kts 174°
2026-05-03 21:52 31.32103 -83.53063 37112 ft 425 kts 174°
2026-05-03 21:52 31.26485 -83.50923 37120 ft 425 kts 174°
2026-05-03 21:53 31.20864 -83.48786 37118 ft 425 kts 174°
2026-05-03 21:53 31.15245 -83.46651 37116 ft 425 kts 174°
2026-05-03 21:54 31.09622 -83.44516 37111 ft 424 kts 175°
2026-05-03 21:54 31.04007 -83.42388 37104 ft 424 kts 175°
2026-05-03 21:55 30.98401 -83.40267 37098 ft 424 kts 175°
2026-05-03 21:55 30.92826 -83.38161 37103 ft 424 kts 175°
2026-05-03 21:56 30.87223 -83.36042 37110 ft 424 kts 175°
2026-05-03 21:56 30.81577 -83.33908 37108 ft 423 kts 175°
2026-05-03 21:57 30.76015 -83.31803 37110 ft 423 kts 175°
2026-05-03 21:57 30.70417 -83.29592 37110 ft 432 kts 169°
2026-05-03 21:58 30.64929 -83.26650 37114 ft 435 kts 168°
2026-05-03 21:58 30.59438 -83.23682 37121 ft 435 kts 168°
2026-05-03 21:59 30.53950 -83.20727 37128 ft 435 kts 168°
2026-05-03 21:59 30.48453 -83.17776 37128 ft 435 kts 168°
2026-05-03 22:00 30.42972 -83.14830 37126 ft 435 kts 168°
2026-05-03 22:00 30.37484 -83.11890 37128 ft 434 kts 169°
2026-05-03 22:01 30.32001 -83.08960 37132 ft 434 kts 169°
2026-05-03 22:01 30.26502 -83.06019 37129 ft 434 kts 169°
2026-05-03 22:02 30.21057 -83.03110 37134 ft 435 kts 169°
2026-05-03 22:02 30.15561 -83.00174 37130 ft 435 kts 169°
2026-05-03 22:03 30.10068 -82.97249 37121 ft 434 kts 169°
2026-05-03 22:03 30.04580 -82.94333 37113 ft 434 kts 169°
2026-05-03 22:04 29.99098 -82.91427 37107 ft 434 kts 169°
2026-05-03 22:04 29.93609 -82.88508 37099 ft 434 kts 169°
2026-05-03 22:05 29.88118 -82.85600 37087 ft 434 kts 169°
2026-05-03 22:05 29.82617 -82.82694 37093 ft 435 kts 169°
2026-05-03 22:06 29.77118 -82.79779 37089 ft 435 kts 169°
2026-05-03 22:06 29.71630 -82.76874 37086 ft 435 kts 169°
2026-05-03 22:07 29.66127 -82.73978 37085 ft 435 kts 169°
2026-05-03 22:07 29.60629 -82.71086 37079 ft 435 kts 169°
2026-05-03 22:08 29.55116 -82.68191 37103 ft 443 kts 169°
2026-05-03 22:08 29.49401 -82.65203 37099 ft 455 kts 169°
2026-05-03 22:09 29.43645 -82.62177 37097 ft 454 kts 169°
2026-05-03 22:10 29.35040 -82.57647 37093 ft 453 kts 169°
2026-05-03 22:10 29.29342 -82.54676 37084 ft 453 kts 169°
2026-05-03 22:10 29.26402 -82.53461 37081 ft 436 kts 179°
2026-05-03 22:11 29.23476 -82.52820 37072 ft 421 kts 187°
2026-05-03 22:11 29.20634 -82.52694 37080 ft 410 kts 193°
2026-05-03 22:11 29.17745 -82.52710 37079 ft 410 kts 193°
2026-05-03 22:12 29.12071 -82.52724 37068 ft 411 kts 192°
2026-05-03 22:12 29.06335 -82.52714 37068 ft 412 kts 192°
2026-05-03 22:13 29.00608 -82.52711 37064 ft 412 kts 192°
2026-05-03 22:13 28.94858 -82.52710 37070 ft 413 kts 192°
2026-05-03 22:14 28.89117 -82.52700 37067 ft 413 kts 192°
2026-05-03 22:14 28.83361 -82.52700 37069 ft 413 kts 192°
2026-05-03 22:15 28.77604 -82.52701 37066 ft 414 kts 192°
2026-05-03 22:15 28.71841 -82.52695 37070 ft 414 kts 192°
2026-05-03 22:16 28.66071 -82.52691 37067 ft 415 kts 192°
2026-05-03 22:16 28.60296 -82.52689 37078 ft 415 kts 192°
2026-05-03 22:17 28.54517 -82.52683 37067 ft 416 kts 192°
2026-05-03 22:17 28.48718 -82.52678 37068 ft 416 kts 192°
2026-05-03 22:18 28.42920 -82.52682 37058 ft 417 kts 192°
2026-05-03 22:18 28.37155 -82.52682 37061 ft 417 kts 192°
2026-05-03 22:19 28.31340 -82.52676 37055 ft 418 kts 192°
2026-05-03 22:19 28.25517 -82.52671 37058 ft 419 kts 192°
2026-05-03 22:20 28.19681 -82.52671 37044 ft 419 kts 192°
2026-05-03 22:20 28.13849 -82.52672 37044 ft 420 kts 192°
2026-05-03 22:21 28.08000 -82.52670 37041 ft 421 kts 192°
2026-05-03 22:21 28.02138 -82.52658 37042 ft 423 kts 190°
2026-05-03 22:22 27.97176 -82.51710 37034 ft 449 kts 174°
2026-05-03 22:22 27.91200 -82.49571 37026 ft 451 kts 174°
2026-05-03 22:23 27.85221 -82.47434 37026 ft 451 kts 174°
2026-05-03 22:23 27.79229 -82.45307 37022 ft 452 kts 174°
2026-05-03 22:24 27.73227 -82.43191 37039 ft 452 kts 174°
2026-05-03 22:24 27.67220 -82.41072 37038 ft 453 kts 174°
2026-05-03 22:25 27.61207 -82.38943 37035 ft 453 kts 174°
2026-05-03 22:25 27.55185 -82.36813 37036 ft 454 kts 174°
2026-05-03 22:26 27.49162 -82.34687 37034 ft 454 kts 174°
2026-05-03 22:26 27.43121 -82.32566 37036 ft 454 kts 174°
2026-05-03 22:27 27.37149 -82.30253 37034 ft 468 kts 165°
2026-05-03 22:27 27.31403 -82.26638 37029 ft 475 kts 161°
2026-05-03 22:28 27.25652 -82.22979 37032 ft 475 kts 161°
2026-05-03 22:28 27.19864 -82.19332 36319 ft 481 kts 161°
2026-05-03 22:28 27.16969 -82.17501 35847 ft 473 kts 161°
2026-05-03 22:29 27.14127 -82.15686 35051 ft 468 kts 161°
2026-05-03 22:29 27.11297 -82.13885 33977 ft 471 kts 161°
2026-05-03 22:29 27.08447 -82.12079 33296 ft 462 kts 160°
2026-05-03 22:29 27.05669 -82.10316 32830 ft 457 kts 160°
2026-05-03 22:30 27.02913 -82.08574 32315 ft 454 kts 160°
2026-05-03 22:30 27.00166 -82.06842 31807 ft 451 kts 159°
2026-05-03 22:30 26.97476 -82.05058 31304 ft 453 kts 154°
2026-05-03 22:30 26.94980 -82.02860 30782 ft 460 kts 144°
2026-05-03 22:31 26.92735 -82.00287 30255 ft 462 kts 140°
2026-05-03 22:31 26.90531 -81.97667 29663 ft 460 kts 140°
2026-05-03 22:31 26.88341 -81.95072 29145 ft 456 kts 140°
2026-05-03 22:31 26.86172 -81.92508 28619 ft 452 kts 140°
2026-05-03 22:32 26.84022 -81.89965 28119 ft 449 kts 140°
2026-05-03 22:32 26.81878 -81.87436 27585 ft 445 kts 140°
2026-05-03 22:32 26.79747 -81.84927 27076 ft 442 kts 141°
2026-05-03 22:32 26.77640 -81.82446 26548 ft 439 kts 141°
2026-05-03 22:33 26.75549 -81.79990 26222 ft 432 kts 141°
2026-05-03 22:33 26.73502 -81.77594 26020 ft 422 kts 141°
2026-05-03 22:33 26.71476 -81.75235 25676 ft 417 kts 141°
2026-05-03 22:33 26.69474 -81.72915 25293 ft 413 kts 141°
2026-05-03 22:34 26.67494 -81.70621 24666 ft 407 kts 141°
2026-05-03 22:34 26.65542 -81.68354 24044 ft 403 kts 141°
2026-05-03 22:34 26.63612 -81.66106 23377 ft 398 kts 140°
2026-05-03 22:34 26.61873 -81.63691 22691 ft 397 kts 134°
2026-05-03 22:35 26.60229 -81.61236 22221 ft 392 kts 134°
2026-05-03 22:35 26.58601 -81.58813 21781 ft 389 kts 134°
2026-05-03 22:35 26.56980 -81.56410 21336 ft 386 kts 134°
2026-05-03 22:35 26.55364 -81.54020 20891 ft 385 kts 134°
2026-05-03 22:36 26.53700 -81.51575 20428 ft 411 kts 134°
2026-05-03 22:36 26.51925 -81.48978 19947 ft 426 kts 133°
2026-05-03 22:36 26.50137 -81.46331 19584 ft 423 kts 133°
2026-05-03 22:36 26.48377 -81.43705 19350 ft 425 kts 132°
2026-05-03 22:37 26.46599 -81.41054 19120 ft 427 kts 132°
2026-05-03 22:37 26.44848 -81.38443 18893 ft 426 kts 132°
2026-05-03 22:37 26.43075 -81.35804 18668 ft 425 kts 132°
2026-05-03 22:37 26.41295 -81.33164 18143 ft 424 kts 133°
2026-05-03 22:38 26.39474 -81.30575 17568 ft 419 kts 134°
2026-05-03 22:38 26.37635 -81.28085 16875 ft 417 kts 135°
2026-05-03 22:38 26.35775 -81.25642 16457 ft 408 kts 136°
2026-05-03 22:38 26.33945 -81.23255 15967 ft 401 kts 136°
2026-05-03 22:39 26.32154 -81.20911 15121 ft 393 kts 135°
2026-05-03 22:39 26.30393 -81.18590 14443 ft 391 kts 135°
2026-05-03 22:39 26.28651 -81.16279 13864 ft 389 kts 135°
2026-05-03 22:39 26.26918 -81.13983 13230 ft 385 kts 135°
2026-05-03 22:40 26.25195 -81.11711 12663 ft 383 kts 135°
2026-05-03 22:40 26.23482 -81.09457 12154 ft 377 kts 134°
2026-05-03 22:40 26.21834 -81.07285 11805 ft 359 kts 134°
2026-05-03 22:40 26.20236 -81.05182 11053 ft 352 kts 134°
2026-05-03 22:41 26.18687 -81.03146 10716 ft 335 kts 134°
2026-05-03 22:41 26.17225 -81.01218 10473 ft 317 kts 134°
2026-05-03 22:41 26.15847 -80.99345 10104 ft 311 kts 128°
2026-05-03 22:41 26.14800 -80.97228 9925 ft 314 kts 114°
2026-05-03 22:42 26.14201 -80.94880 9811 ft 318 kts 103°
2026-05-03 22:42 26.13802 -80.92453 9405 ft 319 kts 102°
2026-05-03 22:42 26.13404 -80.90035 9078 ft 316 kts 102°
2026-05-03 22:42 26.13004 -80.87622 8651 ft 316 kts 102°
2026-05-03 22:43 26.12607 -80.85236 8369 ft 312 kts 102°
2026-05-03 22:43 26.12220 -80.82880 8131 ft 307 kts 102°
2026-05-03 22:43 26.11839 -80.80585 7870 ft 304 kts 102°
2026-05-03 22:43 26.11467 -80.78359 7535 ft 303 kts 102°
2026-05-03 22:44 26.11081 -80.76066 7200 ft 301 kts 102°
2026-05-03 22:44 26.10696 -80.73787 6734 ft 297 kts 101°
2026-05-03 22:44 26.10319 -80.71557 6348 ft 297 kts 101°
2026-05-03 22:44 26.09934 -80.69276 6000 ft 295 kts 101°
2026-05-03 22:45 26.09562 -80.67074 5676 ft 293 kts 101°
2026-05-03 22:45 26.09185 -80.64850 5326 ft 291 kts 101°
2026-05-03 22:45 26.08810 -80.62632 4977 ft 290 kts 101°
2026-05-03 22:45 26.08441 -80.60445 4647 ft 288 kts 101°
2026-05-03 22:46 26.08074 -80.58260 4297 ft 286 kts 102°
2026-05-03 22:46 26.07707 -80.56093 4022 ft 283 kts 102°
2026-05-03 22:46 26.07347 -80.53972 3892 ft 275 kts 102°
2026-05-03 22:46 26.06964 -80.51921 3766 ft 266 kts 104°
2026-05-03 22:47 26.06736 -80.49918 3641 ft 257 kts 94°
2026-05-03 22:47 26.06718 -80.47941 3517 ft 247 kts 90°
2026-05-03 22:47 26.06726 -80.46098 3404 ft 236 kts 91°
2026-05-03 22:47 26.06723 -80.44322 3284 ft 224 kts 91°
2026-05-03 22:48 26.06718 -80.43046 3228 ft 211 kts 92°
2026-05-03 22:48 26.06712 -80.41476 3105 ft 194 kts 92°
2026-05-03 22:48 26.06769 -80.40062 3013 ft 175 kts 78°
2026-05-03 22:48 26.07453 -80.39022 3004 ft 167 kts 27°
2026-05-03 22:49 26.08542 -80.38729 3032 ft 171 kts 358°
2026-05-03 22:49 26.09839 -80.38729 3025 ft 193 kts 353°
2026-05-03 22:49 26.11196 -80.38789 3013 ft 197 kts 352°
2026-05-03 22:49 26.12637 -80.38851 3000 ft 213 kts 353°
2026-05-03 22:50 26.14139 -80.38936 3014 ft 217 kts 352°
2026-05-03 22:50 26.15650 -80.39014 3014 ft 217 kts 353°
2026-05-03 22:50 26.17157 -80.39098 3016 ft 218 kts 352°
2026-05-03 22:50 26.18674 -80.39184 3016 ft 218 kts 353°
2026-05-03 22:51 26.20181 -80.39265 3015 ft 217 kts 353°
2026-05-03 22:51 26.21684 -80.39348 3013 ft 215 kts 352°
2026-05-03 22:51 26.23181 -80.39438 3014 ft 216 kts 353°
2026-05-03 22:51 26.24681 -80.39532 3013 ft 216 kts 352°
2026-05-03 22:52 26.26188 -80.39634 3018 ft 217 kts 353°
2026-05-03 22:52 26.27700 -80.39735 3019 ft 218 kts 353°
2026-05-03 22:52 26.29217 -80.39841 3021 ft 219 kts 353°
2026-05-03 22:52 26.30734 -80.39941 3016 ft 217 kts 352°
2026-05-03 22:53 26.32228 -80.40057 3019 ft 218 kts 353°
2026-05-03 22:53 26.33761 -80.40174 3017 ft 218 kts 352°
2026-05-03 22:53 26.35280 -80.40229 3009 ft 220 kts
2026-05-03 22:53 26.36685 -80.39545 3022 ft 227 kts 40°
2026-05-03 22:54 26.37527 -80.38097 3023 ft 230 kts 75°
2026-05-03 22:54 26.37702 -80.36310 3028 ft 229 kts 91°
2026-05-03 22:54 26.37706 -80.34559 3028 ft 230 kts 92°
2026-05-03 22:54 26.37686 -80.32782 3025 ft 228 kts 92°
2026-05-03 22:55 26.37657 -80.31010 3029 ft 230 kts 92°
2026-05-03 22:55 26.37613 -80.29222 3031 ft 232 kts 92°
2026-05-03 22:55 26.37570 -80.27436 3024 ft 229 kts 92°
2026-05-03 22:55 26.37541 -80.25659 3025 ft 230 kts 92°
2026-05-03 22:56 26.37502 -80.23874 3030 ft 231 kts 92°
2026-05-03 22:56 26.37466 -80.22084 3029 ft 231 kts 92°
2026-05-03 22:56 26.37425 -80.20285 3034 ft 233 kts 93°
2026-05-03 22:56 26.37403 -80.18497 3024 ft 230 kts 92°
2026-05-03 22:57 26.37379 -80.16718 3024 ft 228 kts 92°
2026-05-03 22:57 26.37025 -80.15021 3026 ft 224 kts 124°
2026-05-03 22:57 26.35942 -80.13865 3023 ft 214 kts 160°
2026-05-03 22:57 26.34520 -80.13512 3026 ft 208 kts 181°
2026-05-03 22:58 26.33080 -80.13402 3023 ft 208 kts 182°
2026-05-03 22:58 26.31632 -80.13326 3025 ft 208 kts 183°
2026-05-03 22:58 26.30195 -80.13249 3017 ft 208 kts 182°
2026-05-03 22:58 26.28753 -80.13193 3017 ft 208 kts 186°
2026-05-03 22:59 26.27416 -80.13673 3018 ft 201 kts 216°
2026-05-03 22:59 26.26295 -80.14611 3021 ft 200 kts 221°
2026-05-03 22:59 26.25219 -80.15593 3015 ft 200 kts 222°
2026-05-03 22:59 26.24157 -80.16587 3008 ft 201 kts 223°
2026-05-03 23:00 26.23095 -80.17590 3009 ft 199 kts 223°
2026-05-03 23:00 26.22040 -80.18588 3010 ft 199 kts 223°
2026-05-03 23:00 26.20979 -80.19582 3009 ft 199 kts 222°
2026-05-03 23:00 26.19929 -80.20578 3008 ft 198 kts 223°
2026-05-03 23:01 26.18877 -80.21562 3010 ft 198 kts 223°
2026-05-03 23:01 26.17844 -80.22562 2998 ft 196 kts 230°
2026-05-03 23:01 26.17304 -80.23922 3012 ft 195 kts 261°
2026-05-03 23:01 26.17200 -80.25425 3002 ft 195 kts 267°
2026-05-03 23:02 26.17153 -80.26936 3000 ft 196 kts 266°
2026-05-03 23:02 26.17132 -80.28451 3006 ft 195 kts 267°
2026-05-03 23:02 26.17116 -80.29953 3009 ft 193 kts 268°
2026-05-03 23:02 26.17100 -80.31455 3014 ft 195 kts 268°
2026-05-03 23:03 26.17093 -80.32964 3008 ft 194 kts 268°
2026-05-03 23:03 26.16988 -80.34455 3012 ft 193 kts 251°
2026-05-03 23:03 26.16187 -80.35632 3010 ft 197 kts 214°
2026-05-03 23:03 26.14848 -80.36015 3013 ft 206 kts 181°
2026-05-03 23:04 26.13417 -80.35790 3016 ft 209 kts 173°
2026-05-03 23:04 26.11983 -80.35482 3011 ft 209 kts 173°
2026-05-03 23:04 26.10561 -80.35156 3011 ft 210 kts 173°
2026-05-03 23:04 26.09150 -80.34741 3006 ft 213 kts 158°
2026-05-03 23:05 26.07959 -80.33726 3008 ft 219 kts 137°
2026-05-03 23:05 26.07091 -80.32311 2815 ft 224 kts 117°
2026-05-03 23:05 26.06685 -80.30646 2611 ft 219 kts 98°
2026-05-03 23:05 26.06654 -80.29023 2311 ft 207 kts 91°
2026-05-03 23:06 26.06650 -80.27480 2062 ft 191 kts 92°
2026-05-03 23:06 26.06644 -80.26099 1837 ft 168 kts 92°
2026-05-03 23:06 26.06638 -80.24858 1625 ft 154 kts 92°
2026-05-03 23:06 26.06631 -80.23673 1428 ft 153 kts 92°
2026-05-03 23:07 26.06625 -80.22497 1250 ft 152 kts 93°
2026-05-03 23:07 26.06618 -80.21333 1041 ft 148 kts 93°
2026-05-03 23:07 26.06620 -80.20208 789 ft 145 kts 90°
2026-05-03 23:07 26.06612 -80.19084 592 ft 143 kts 89°
2026-05-03 23:08 26.06598 -80.17985 354 ft 140 kts 88°
2026-05-03 23:08 26.06589 -80.16941 204 ft 130 kts 85°
2026-05-03 23:08 26.06588 -80.15953 48 ft 126 kts 85°
2026-05-03 23:08 26.06591 -80.14992 67 ft 133 kts 89°
2026-05-03 23:09 26.06562 -80.13914 699 ft 147 kts 91°
2026-05-03 23:09 26.06516 -80.12728 1338 ft 158 kts 91°
2026-05-03 23:09 26.06506 -80.11463 1910 ft 171 kts 93°
2026-05-03 23:09 26.06505 -80.10013 2008 ft 205 kts 92°
2026-05-03 23:10 26.06505 -80.08913 1949 ft 220 kts 93°
2026-05-03 23:10 26.06504 -80.07209 1976 ft 224 kts 92°
2026-05-03 23:10 26.06491 -80.05467 1982 ft 224 kts 92°
2026-05-03 23:10 26.06471 -80.03742 1996 ft 224 kts 92°
2026-05-03 23:11 26.06448 -80.02010 2002 ft 224 kts 93°
2026-05-03 23:11 26.06435 -80.00279 2002 ft 224 kts 92°
2026-05-03 23:11 26.06353 -79.98559 1990 ft 221 kts 107°
2026-05-03 23:11 26.05581 -79.97140 2153 ft 215 kts 147°
2026-05-03 23:12 26.04236 -79.96555 2844 ft 207 kts 183°
2026-05-03 23:12 26.02886 -79.96956 3578 ft 201 kts 218°
2026-05-03 23:12 26.01846 -79.98004 3901 ft 202 kts 231°
2026-05-03 23:12 26.00919 -79.99165 3988 ft 200 kts 232°
2026-05-03 23:13 26.00018 -80.00333 4000 ft 198 kts 232°
2026-05-03 23:13 25.99125 -80.01496 4000 ft 198 kts 232°
2026-05-03 23:13 25.98308 -80.02562 4000 ft 199 kts 232°
2026-05-03 23:13 25.97408 -80.03740 4003 ft 200 kts 233°
2026-05-03 23:14 25.96515 -80.04908 4002 ft 199 kts 232°
2026-05-03 23:14 25.95603 -80.06110 4002 ft 200 kts 232°
2026-05-03 23:14 25.94726 -80.07271 4002 ft 199 kts 232°
2026-05-03 23:14 25.93833 -80.08446 4002 ft 199 kts 232°
2026-05-03 23:15 25.92942 -80.09629 4003 ft 200 kts 232°
2026-05-03 23:15 25.92054 -80.10819 4008 ft 199 kts 236°
2026-05-03 23:15 25.91617 -80.12241 4005 ft 198 kts 271°
2026-05-03 23:15 25.91817 -80.13753 4012 ft 199 kts 281°
2026-05-03 23:16 25.92135 -80.15255 4009 ft 200 kts 282°
2026-05-03 23:16 25.92467 -80.16750 4011 ft 199 kts 282°
2026-05-03 23:16 25.92802 -80.18245 4006 ft 199 kts 282°
2026-05-03 23:16 25.93138 -80.19731 4010 ft 199 kts 283°
2026-05-03 23:17 25.93475 -80.21237 4010 ft 201 kts 282°
2026-05-03 23:17 25.93814 -80.22740 4010 ft 201 kts 282°
2026-05-03 23:17 25.94155 -80.24251 4009 ft 201 kts 282°
2026-05-03 23:17 25.94492 -80.25735 4009 ft 200 kts 283°
2026-05-03 23:18 25.94832 -80.27232 4008 ft 200 kts 283°
2026-05-03 23:18 25.95173 -80.28739 4012 ft 201 kts 283°
2026-05-03 23:18 25.95516 -80.30247 4009 ft 201 kts 282°
2026-05-03 23:18 25.95872 -80.31743 4008 ft 201 kts 282°
2026-05-03 23:19 25.96238 -80.33246 4072 ft 201 kts 283°
2026-05-03 23:19 25.96572 -80.34736 4011 ft 198 kts 283°
2026-05-03 23:19 25.96892 -80.36209 3989 ft 201 kts 283°
2026-05-03 23:19 25.97216 -80.37772 3996 ft 207 kts 283°
2026-05-03 23:20 25.97536 -80.39330 3995 ft 207 kts 283°
2026-05-03 23:20 25.97856 -80.40891 3997 ft 208 kts 283°
2026-05-03 23:20 25.98174 -80.42439 3996 ft 208 kts 283°
2026-05-03 23:20 25.98500 -80.44023 3992 ft 208 kts 283°
2026-05-03 23:21 25.98982 -80.45501 3984 ft 208 kts 306°
2026-05-03 23:21 26.00122 -80.46447 3994 ft 208 kts 343°
2026-05-03 23:21 26.01561 -80.46600 4006 ft 209 kts
2026-05-03 23:21 26.03016 -80.46549 3713 ft 213 kts
2026-05-03 23:22 26.06048 -80.46382 3037 ft 218 kts
2026-05-03 23:22 26.07569 -80.46292 2990 ft 219 kts
2026-05-03 23:22 26.09056 -80.45984 2986 ft 220 kts 26°
2026-05-03 23:23 26.10226 -80.44897 2994 ft 221 kts 47°
2026-05-03 23:23 26.11445 -80.43884 2990 ft 221 kts 19°
2026-05-03 23:23 26.12918 -80.43740 2983 ft 206 kts 347°
2026-05-03 23:23 26.14083 -80.44478 2983 ft 190 kts 308°
2026-05-03 23:24 26.14546 -80.45813 2994 ft 187 kts 275°
2026-05-03 23:24 26.14585 -80.47248 2993 ft 187 kts 269°
2026-05-03 23:24 26.14559 -80.48702 2993 ft 187 kts 268°
2026-05-03 23:24 26.14522 -80.50142 2994 ft 187 kts 268°
2026-05-03 23:25 26.14482 -80.51589 2992 ft 187 kts 268°
2026-05-03 23:25 26.14441 -80.53034 2992 ft 187 kts 268°
2026-05-03 23:25 26.14401 -80.54478 2992 ft 187 kts 268°
2026-05-03 23:25 26.14360 -80.55922 2992 ft 187 kts 268°
2026-05-03 23:26 26.14082 -80.57312 2988 ft 187 kts 238°
2026-05-03 23:26 26.13088 -80.58206 2991 ft 188 kts 197°
2026-05-03 23:26 26.11796 -80.58219 3000 ft 189 kts 168°
2026-05-03 23:26 26.10523 -80.57841 2993 ft 189 kts 163°
2026-05-03 23:27 26.09265 -80.57414 2992 ft 189 kts 163°
2026-05-03 23:27 26.08005 -80.56979 2992 ft 189 kts 162°
2026-05-03 23:27 26.06894 -80.56235 2986 ft 190 kts 125°
2026-05-03 23:27 26.06602 -80.54844 2997 ft 190 kts 82°
2026-05-03 23:28 26.06779 -80.53385 2982 ft 191 kts 89°
2026-05-03 23:28 26.06764 -80.51910 2991 ft 191 kts 90°
2026-05-03 23:28 26.06749 -80.50433 2992 ft 191 kts 90°
2026-05-03 23:28 26.06741 -80.48959 2992 ft 191 kts 90°
2026-05-03 23:29 26.06735 -80.47419 3013 ft 217 kts 90°
2026-05-03 23:29 26.06729 -80.45644 2996 ft 237 kts 90°
2026-05-03 23:29 26.06722 -80.43802 2989 ft 241 kts 90°
2026-05-03 23:29 26.06715 -80.42137 2991 ft 242 kts 90°
2026-05-03 23:30 26.06707 -80.40270 2992 ft 242 kts 90°
2026-05-03 23:30 26.06699 -80.38419 2992 ft 242 kts 90°
2026-05-03 23:30 26.06691 -80.36520 2992 ft 242 kts 90°
2026-05-03 23:30 26.06683 -80.34674 2992 ft 242 kts 90°
2026-05-03 23:31 26.06675 -80.32776 2905 ft 241 kts 90°
2026-05-03 23:31 26.06666 -80.30944 2650 ft 233 kts 90°
2026-05-03 23:31 26.06658 -80.29209 2361 ft 221 kts 90°
2026-05-03 23:31 26.06650 -80.27543 2078 ft 210 kts 90°
2026-05-03 23:32 26.06642 -80.25942 1839 ft 205 kts 90°
2026-05-03 23:32 26.06634 -80.24407 1540 ft 191 kts 90°
2026-05-03 23:32 26.06627 -80.23008 1306 ft 169 kts 90°
2026-05-03 23:32 26.06621 -80.21788 1085 ft 145 kts 90°
2026-05-03 23:33 26.06610 -80.20720 885 ft 132 kts 90°
2026-05-03 23:33 26.06604 -80.19712 639 ft 129 kts 90°
2026-05-03 23:33 26.06605 -80.18717 474 ft 129 kts 90°
2026-05-03 23:33 26.06602 -80.17725 332 ft 128 kts 90°
2026-05-03 23:34 26.06597 -80.16737 179 ft 128 kts 91°
2026-05-03 23:34 26.06588 -80.15748 33 ft 127 kts 90°
2026-05-03 23:34 26.06586 -80.14893 19 ft 89 kts 91°
2026-05-03 23:34 26.06583 -80.14402 47 ft 33 kts 90°
2026-05-03 23:35 26.06610 -80.14258 54 ft 13 kts 56°
2026-05-03 23:35 26.06676 -80.14263 49 ft 8 kts 288°
2026-05-03 23:35 26.06678 -80.14280 49 ft 0 kts 272°
2026-05-03 23:35 26.06678 -80.14281 49 ft 1 kts 272°
2026-05-03 23:36 26.06678 -80.14300 49 ft 4 kts 270°
2026-05-03 23:36 26.06678 -80.14340 49 ft 7 kts 269°
2026-05-03 23:36 26.06677 -80.14413 47 ft 13 kts 269°
2026-05-03 23:36 26.06677 -80.14524 43 ft 16 kts 270°
2026-05-03 23:37 26.06676 -80.14636 36 ft 12 kts 270°
2026-05-03 23:37 26.06677 -80.14745 27 ft 17 kts 271°
2026-05-03 23:37 26.06684 -80.14856 20 ft 11 kts 282°
2026-05-03 23:37 26.06688 -80.14871 22 ft 0 kts 288°
2026-05-03 23:38 26.06691 -80.14880 20 ft 5 kts 288°
2026-05-03 23:38 26.06730 -80.14918 17 ft 11 kts 351°
2026-05-03 23:38 26.06766 -80.14842 15 ft 11 kts 92°
2026-05-03 23:38 26.06766 -80.14759 16 ft 15 kts 90°
2026-05-03 23:39 26.06766 -80.14628 16 ft 12 kts 89°
2026-05-03 23:39 26.06824 -80.14595 16 ft 14 kts 328°
2026-05-03 23:39 26.06904 -80.14673 16 ft 15 kts 324°
2026-05-03 23:39 26.06993 -80.14688 16 ft 12 kts 29°
2026-05-03 23:40 26.07035 -80.14673 16 ft 2 kts 16°
2026-05-03 23:40 26.07043 -80.14671 16 ft 0 kts 17°